Time,TemperatureF,DewpointF,PressureIn,WindDirection,WindDirectionDegrees,WindSpeedMPH,WindSpeedGustMPH,Humidity,HourlyPrecipIn,Conditions,Clouds,dailyrainin,SolarRadiationWatts/m^2,SoftwareType,DateUTC
2013-03-01 00:00:00,23.0,17.0,-100.00,NNE,22,7.0,-999.0,74,-99.99,,,-99.99,0.000000,,2013-03-01 06:00:00,
2013-03-01 00:42:00,23.0,17.0,-100.00,NNE,22,7.0,-999.0,74,-99.99,,,-99.99,0.000000,,2013-03-01 06:42:00,
2013-03-01 00:53:00,23.0,17.0,-100.00,NNE,22,7.0,-999.0,74,-99.99,,,-99.99,0.000000,,2013-03-01 06:53:00,
2013-03-01 03:00:00,22.0,16.0,-100.00,NNE,22,8.0,-999.0,78,-99.99,,,-99.99,0.000000,,2013-03-01 09:00:00,
2013-03-01 03:32:00,22.0,16.0,-100.00,NNE,22,8.0,-999.0,78,-99.99,,,-99.99,0.000000,,2013-03-01 09:32:00,
2013-03-01 03:42:00,22.0,16.0,-100.00,NNE,22,8.0,-999.0,78,-99.99,,,-99.99,0.000000,,2013-03-01 09:42:00,
2013-03-01 03:52:00,22.0,16.0,-100.00,NNE,22,8.0,-999.0,78,-99.99,,,-99.99,0.000000,,2013-03-01 09:52:00,
2013-03-01 06:00:00,20.0,16.0,-100.00,NNE,22,9.0,-999.0,84,-99.99,,,-99.99,0.000000,,2013-03-01 12:00:00,
2013-03-01 06:42:00,20.0,16.0,-100.00,NNE,22,9.0,-999.0,84,-99.99,,,-99.99,0.000000,,2013-03-01 12:42:00,
2013-03-01 06:52:00,20.0,16.0,-100.00,NNE,22,9.0,-999.0,84,-99.99,,,-99.99,0.000000,,2013-03-01 12:52:00,
2013-03-01 09:00:00,20.0,16.0,-100.00,NNE,22,11.0,-999.0,82,-99.99,,,-99.99,148.479996,,2013-03-01 15:00:00,
2013-03-01 09:42:00,20.0,16.0,-100.00,NNE,22,11.0,-999.0,82,-99.99,,,-99.99,148.479996,,2013-03-01 15:42:00,
2013-03-01 09:52:00,20.0,16.0,-100.00,NNE,22,11.0,-999.0,82,-99.99,,,-99.99,148.479996,,2013-03-01 15:52:00,
2013-03-01 15:00:00,26.0,15.0,-100.00,NNE,22,11.0,-999.0,63,-99.99,,,-99.99,452.399994,,2013-03-01 21:00:00,
2013-03-01 15:32:00,26.0,15.0,-100.00,NNE,22,11.0,-999.0,63,-99.99,,,-99.99,452.399994,,2013-03-01 21:32:00,
2013-03-01 15:42:00,26.0,15.0,-100.00,NNE,22,11.0,-999.0,63,-99.99,,,-99.99,452.399994,,2013-03-01 21:42:00,
2013-03-01 15:52:00,26.0,15.0,-100.00,NNE,22,11.0,-999.0,63,-99.99,,,-99.99,452.399994,,2013-03-01 21:52:00,
2013-03-01 18:00:00,22.0,10.0,-100.00,NNE,22,10.0,-999.0,59,-99.99,,,-99.99,15.080000,,2013-03-02 00:00:00,
2013-03-01 18:42:00,22.0,10.0,-100.00,NNE,22,10.0,-999.0,59,-99.99,,,-99.99,15.080000,,2013-03-02 00:42:00,
2013-03-01 18:52:00,22.0,10.0,-100.00,NNE,22,10.0,-999.0,59,-99.99,,,-99.99,15.080000,,2013-03-02 00:52:00,
2013-03-01 21:00:00,17.0,11.0,-100.00,North,0,8.0,-999.0,76,-99.99,,,-99.99,0.000000,,2013-03-02 03:00:00,
2013-03-01 21:42:00,17.0,11.0,-100.00,North,0,8.0,-999.0,76,-99.99,,,-99.99,0.000000,,2013-03-02 03:42:00,
2013-03-01 21:52:00,17.0,11.0,-100.00,North,0,8.0,-999.0,76,-99.99,,,-99.99,0.000000,,2013-03-02 03:52:00,